AFL685 UDYZ-USSS

Flight info

Callsign AFL685
Flight time 9h 25m
Altitude 35000
Route SEVAN T916 LEYLA N161 GASBI N60 NOGBU N996 KODUM Z210 EKTOB L992 NEBIS
Aircraft A320/M-SDE2E3FGHIJ1RWY/LB1U1

Departure

Time 2026-04-28 00:38
Airport Zvartnots International Airport (UDYZ)

Arrival

Time 2026-04-28 10:04
Airport Koltsovo Airport (USSS)
Time Latitude Longitude Altitude Speed Heading
2026-04-28 00:19 40.15073 44.40131 2841 ft 0 kts
2026-04-28 00:27 40.15072 44.40131 2841 ft 0 kts
2026-04-28 00:31 40.15058 44.40131 2841 ft 3 kts 358°
2026-04-28 00:31 40.15038 44.40132 2839 ft 3 kts 352°
2026-04-28 00:32 40.15018 44.40137 2839 ft 3 kts 345°
2026-04-28 00:32 40.14999 44.40145 2841 ft 3 kts 330°
2026-04-28 00:32 40.14984 44.40160 2840 ft 3 kts 295°
2026-04-28 00:32 40.14980 44.40171 2839 ft 0 kts 269°
2026-04-28 00:34 40.14980 44.40138 2839 ft 13 kts 269°
2026-04-28 00:34 40.14979 44.39987 2841 ft 17 kts 270°
2026-04-28 00:35 40.14978 44.39827 2841 ft 18 kts 269°
2026-04-28 00:35 40.14977 44.39634 2839 ft 26 kts 270°
2026-04-28 00:35 40.14975 44.39394 2839 ft 27 kts 269°
2026-04-28 00:35 40.14973 44.39149 2839 ft 27 kts 269°
2026-04-28 00:36 40.14972 44.38900 2839 ft 28 kts 269°
2026-04-28 00:36 40.14970 44.38648 2839 ft 28 kts 270°
2026-04-28 00:36 40.14972 44.38444 2839 ft 16 kts 269°
2026-04-28 00:36 40.14925 44.38339 2840 ft 13 kts 215°
2026-04-28 00:37 40.14854 44.38283 2840 ft 12 kts 210°
2026-04-28 00:37 40.14776 44.38240 2841 ft 11 kts 192°
2026-04-28 00:37 40.14719 44.38285 2841 ft 11 kts 95°
2026-04-28 00:37 40.14720 44.38430 2842 ft 32 kts 89°
2026-04-28 00:38 40.14724 44.39057 2839 ft 102 kts 90°
2026-04-28 00:38 40.14730 44.40237 2843 ft 155 kts 90°
2026-04-28 00:38 40.14738 44.41713 3357 ft 160 kts 90°
2026-04-28 00:38 40.14744 44.43168 4063 ft 161 kts 90°
2026-04-28 00:39 40.14712 44.44632 4654 ft 163 kts 103°
2026-04-28 00:39 40.14066 44.45812 4980 ft 167 kts 152°
2026-04-28 00:39 40.12978 44.46179 5387 ft 164 kts 187°
2026-04-28 00:39 40.11930 44.45645 5789 ft 163 kts 224°
2026-04-28 00:40 40.11326 44.44390 6070 ft 173 kts 259°
2026-04-28 00:40 40.11489 44.42778 6204 ft 193 kts 301°
2026-04-28 00:40 40.12568 44.41649 6373 ft 215 kts 345°
2026-04-28 00:40 40.14113 44.41803 6524 ft 240 kts 26°
2026-04-28 00:41 40.15530 44.43126 6777 ft 264 kts 43°
2026-04-28 00:41 40.16828 44.44923 7260 ft 278 kts 49°
2026-04-28 00:41 40.18089 44.46869 7975 ft 283 kts 50°
2026-04-28 00:41 40.19369 44.48841 8743 ft 286 kts 50°
2026-04-28 00:42 40.20694 44.50807 9511 ft 290 kts 48°
2026-04-28 00:42 40.22067 44.52765 10188 ft 297 kts 47°
2026-04-28 00:42 40.23538 44.54809 10377 ft 320 kts 47°
2026-04-28 00:42 40.24816 44.57281 10631 ft 337 kts 68°
2026-04-28 00:43 40.25768 44.60132 11167 ft 345 kts 62°
2026-04-28 00:43 40.27230 44.62586 11790 ft 351 kts 44°
2026-04-28 00:43 40.29005 44.64808 12445 ft 355 kts 44°
2026-04-28 00:43 40.30809 44.67047 13093 ft 360 kts 43°
2026-04-28 00:44 40.32639 44.69315 13740 ft 365 kts 43°
2026-04-28 00:44 40.34490 44.71614 14316 ft 369 kts 43°
2026-04-28 00:44 40.36359 44.73946 14902 ft 372 kts 44°
2026-04-28 00:44 40.38240 44.76304 15508 ft 375 kts 44°
2026-04-28 00:45 40.40129 44.78680 16092 ft 378 kts 44°
2026-04-28 00:45 40.42035 44.81084 16674 ft 381 kts 44°
2026-04-28 00:45 40.43333 44.82719 17066 ft 384 kts 44°
2026-04-28 00:45 40.45265 44.85151 17636 ft 387 kts 44°
2026-04-28 00:46 40.47214 44.87610 18211 ft 390 kts 44°
2026-04-28 00:46 40.49174 44.90091 18716 ft 393 kts 44°
2026-04-28 00:46 40.51149 44.92594 19213 ft 396 kts 44°
2026-04-28 00:46 40.53038 44.95177 19697 ft 399 kts 51°
2026-04-28 00:47 40.54611 44.98189 20192 ft 402 kts 60°
2026-04-28 00:47 40.55990 45.01401 20690 ft 405 kts 61°
2026-04-28 00:47 40.57380 45.04630 21182 ft 408 kts 61°
2026-04-28 00:47 40.58782 45.07888 21670 ft 411 kts 61°
2026-04-28 00:48 40.60192 45.11173 22161 ft 414 kts 61°
2026-04-28 00:48 40.61610 45.14480 22631 ft 417 kts 61°
2026-04-28 00:48 40.63043 45.17815 23092 ft 420 kts 61°
2026-04-28 00:48 40.64484 45.21177 23542 ft 423 kts 61°
2026-04-28 00:49 40.65935 45.24560 23927 ft 426 kts 61°
2026-04-28 00:49 40.67395 45.27970 24296 ft 429 kts 61°
2026-04-28 00:49 40.68863 45.31404 24664 ft 431 kts 61°
2026-04-28 00:49 40.70335 45.34858 25011 ft 433 kts 61°
2026-04-28 00:50 40.71810 45.38337 25352 ft 436 kts 61°
2026-04-28 00:50 40.73291 45.41833 25696 ft 438 kts 61°
2026-04-28 00:50 40.74786 45.45352 26024 ft 441 kts 61°
2026-04-28 00:50 40.76147 45.48975 26349 ft 442 kts 69°
2026-04-28 00:51 40.77073 45.52848 26673 ft 444 kts 79°
2026-04-28 00:51 40.77566 45.56867 26980 ft 445 kts 84°
2026-04-28 00:51 40.77977 45.60923 27287 ft 448 kts 84°
2026-04-28 00:51 40.78395 45.65006 27580 ft 450 kts 84°
2026-04-28 00:52 40.78821 45.69108 27877 ft 452 kts 84°
2026-04-28 00:52 40.79251 45.73229 28166 ft 455 kts 84°
2026-04-28 00:52 40.79681 45.77376 28455 ft 457 kts 84°
2026-04-28 00:52 40.80111 45.81540 28724 ft 459 kts 84°
2026-04-28 00:53 40.80539 45.85727 29012 ft 461 kts 84°
2026-04-28 00:53 40.80964 45.89933 29273 ft 463 kts 84°
2026-04-28 00:53 40.81389 45.94160 29528 ft 466 kts 84°
2026-04-28 00:53 40.81813 45.98404 29773 ft 468 kts 84°
2026-04-28 00:54 40.82236 46.02670 30014 ft 470 kts 84°
2026-04-28 00:54 40.82657 46.06892 30224 ft 472 kts 84°
2026-04-28 00:54 40.83087 46.11196 30411 ft 474 kts 84°
2026-04-28 00:54 40.83518 46.15513 30595 ft 476 kts 84°
2026-04-28 00:55 40.83949 46.19854 30766 ft 478 kts 85°
2026-04-28 00:55 40.84377 46.24215 30960 ft 479 kts 85°
2026-04-28 00:55 40.84803 46.28576 31208 ft 479 kts 85°
2026-04-28 00:55 40.85227 46.32938 31449 ft 480 kts 85°
2026-04-28 00:56 40.85650 46.37312 31685 ft 480 kts 85°
2026-04-28 00:56 40.86072 46.41687 31913 ft 481 kts 85°
2026-04-28 00:56 40.86495 46.46075 32145 ft 481 kts 85°
2026-04-28 00:56 40.86920 46.50461 32377 ft 482 kts 85°
2026-04-28 00:57 40.87347 46.54860 32607 ft 483 kts 85°
2026-04-28 00:57 40.87769 46.59259 32842 ft 483 kts 85°
2026-04-28 00:57 40.88188 46.63668 33073 ft 484 kts 85°
2026-04-28 00:57 40.88604 46.68079 33304 ft 484 kts 85°
2026-04-28 00:58 40.89017 46.72495 33537 ft 485 kts 86°
2026-04-28 00:58 40.89425 46.76915 33760 ft 485 kts 86°
2026-04-28 00:58 40.89846 46.81340 33993 ft 486 kts 83°
2026-04-28 00:58 40.90568 46.85723 34193 ft 489 kts 78°
2026-04-28 00:59 40.91391 46.90084 34381 ft 489 kts 78°
2026-04-28 00:59 40.92208 46.94456 34575 ft 490 kts 78°
2026-04-28 00:59 40.93020 46.98826 34772 ft 490 kts 78°
2026-04-28 00:59 40.93828 47.03206 34957 ft 490 kts 78°
2026-04-28 01:00 40.94635 47.07588 35071 ft 490 kts 78°
2026-04-28 01:00 40.96243 47.16311 35098 ft 487 kts 78°
2026-04-28 01:01 40.97839 47.25020 35103 ft 487 kts 78°
2026-04-28 01:01 40.99432 47.33741 35105 ft 488 kts 78°
2026-04-28 01:02 41.01016 47.42474 35112 ft 488 kts 79°
2026-04-28 01:02 41.02592 47.51218 35104 ft 488 kts 79°
2026-04-28 01:03 41.04163 47.59967 35094 ft 488 kts 79°
2026-04-28 01:03 41.05729 47.68717 35089 ft 488 kts 79°
2026-04-28 01:04 41.07292 47.77474 35087 ft 488 kts 79°
2026-04-28 01:04 41.08844 47.86233 35085 ft 488 kts 79°
2026-04-28 01:05 41.10512 47.94967 35095 ft 490 kts 71°
2026-04-28 01:05 41.13649 48.02974 35105 ft 491 kts 53°
2026-04-28 01:06 41.17702 48.10270 35125 ft 492 kts 53°
2026-04-28 01:06 41.21711 48.17561 35148 ft 492 kts 53°
2026-04-28 01:07 41.25736 48.24924 35170 ft 492 kts 53°
2026-04-28 01:07 41.29766 48.32283 35194 ft 492 kts 53°
2026-04-28 01:08 41.33799 48.39639 35207 ft 492 kts 53°
2026-04-28 01:08 41.37820 48.46997 35218 ft 491 kts 53°
2026-04-28 01:09 41.41820 48.54365 35220 ft 490 kts 53°
2026-04-28 01:09 41.45842 48.61693 35220 ft 489 kts 52°
2026-04-28 01:10 41.49923 48.68952 35223 ft 489 kts 52°
2026-04-28 01:10 41.53980 48.76228 35222 ft 489 kts 54°
2026-04-28 01:11 41.57812 48.83718 35224 ft 488 kts 56°
2026-04-28 01:11 41.61518 48.91312 35223 ft 487 kts 56°
2026-04-28 01:12 41.65250 48.98870 35226 ft 486 kts 56°
2026-04-28 01:12 41.69021 49.06371 35230 ft 485 kts 56°
2026-04-28 01:13 41.72789 49.13857 35233 ft 484 kts 56°
2026-04-28 01:13 41.78384 49.25090 35224 ft 483 kts 56°
2026-04-28 01:14 41.82107 49.32576 35214 ft 482 kts 55°
2026-04-28 01:14 41.86024 49.39862 35210 ft 481 kts 52°
2026-04-28 01:15 41.90052 49.47030 35207 ft 481 kts 52°
2026-04-28 01:15 41.94041 49.54225 35208 ft 480 kts 53°
2026-04-28 01:16 41.97970 49.61473 35201 ft 479 kts 54°
2026-04-28 01:16 42.01874 49.68728 35193 ft 479 kts 54°
2026-04-28 01:17 42.05783 49.75979 35189 ft 478 kts 53°
2026-04-28 01:17 42.09669 49.83179 35181 ft 478 kts 54°
2026-04-28 01:18 42.13568 49.90435 35173 ft 478 kts 54°
2026-04-28 01:18 42.17460 49.97697 35169 ft 478 kts 54°
2026-04-28 01:19 42.21370 50.05014 35158 ft 478 kts 54°
2026-04-28 01:19 42.25259 50.12281 35156 ft 478 kts 54°
2026-04-28 01:20 42.29142 50.19556 35146 ft 477 kts 54°
2026-04-28 01:20 42.32983 50.26796 35141 ft 477 kts 54°
2026-04-28 01:21 42.36843 50.34096 35138 ft 477 kts 54°
2026-04-28 01:21 42.40722 50.41375 35136 ft 477 kts 50°
2026-04-28 01:22 42.45532 50.47454 35127 ft 472 kts 31°
2026-04-28 01:22 42.51358 50.51426 35120 ft 468 kts 20°
2026-04-28 01:23 42.57357 50.54888 35118 ft 469 kts 20°
2026-04-28 01:23 42.63352 50.58385 35119 ft 469 kts 20°
2026-04-28 01:24 42.69347 50.61896 35121 ft 469 kts 20°
2026-04-28 01:24 42.75347 50.65404 35119 ft 469 kts 20°
2026-04-28 01:25 42.81352 50.68907 35120 ft 470 kts 21°
2026-04-28 01:25 42.87355 50.72430 35123 ft 470 kts 21°
2026-04-28 01:26 42.93364 50.75959 35119 ft 470 kts 21°
2026-04-28 01:26 42.99367 50.79492 35120 ft 470 kts 21°
2026-04-28 01:27 43.05378 50.83043 35121 ft 470 kts 21°
2026-04-28 01:27 43.11384 50.86601 35115 ft 470 kts 21°
2026-04-28 01:28 43.17391 50.90167 35117 ft 471 kts 21°
2026-04-28 01:28 43.23399 50.93731 35115 ft 471 kts 21°
2026-04-28 01:29 43.29407 50.97302 35111 ft 471 kts 21°
2026-04-28 01:29 43.35413 51.00880 35106 ft 470 kts 21°
2026-04-28 01:30 43.41418 51.04459 35101 ft 470 kts 21°
2026-04-28 01:30 43.47417 51.08061 35097 ft 470 kts 21°
2026-04-28 01:31 43.52403 51.11056 35089 ft 470 kts 21°
2026-04-28 01:31 43.58407 51.14663 35081 ft 471 kts 21°
2026-04-28 01:32 43.64411 51.18280 35080 ft 471 kts 21°
2026-04-28 01:32 43.70415 51.21914 35079 ft 471 kts 21°
2026-04-28 01:33 43.76425 51.25553 35082 ft 472 kts 21°
2026-04-28 01:33 43.82444 51.29191 35079 ft 472 kts 21°
2026-04-28 01:34 43.88462 51.32852 35082 ft 472 kts 21°
2026-04-28 01:34 43.94479 51.36532 35086 ft 473 kts 21°
2026-04-28 01:35 44.00498 51.40217 35092 ft 473 kts 21°
2026-04-28 01:35 44.06518 51.43898 35093 ft 473 kts 21°
2026-04-28 01:36 44.12508 51.47556 35096 ft 473 kts 21°
2026-04-28 01:36 44.18534 51.51253 35104 ft 474 kts 22°
2026-04-28 01:37 44.24559 51.54970 35108 ft 474 kts 22°
2026-04-28 01:37 44.30595 51.58706 35108 ft 474 kts 22°
2026-04-28 01:38 44.36626 51.62442 35112 ft 474 kts 22°
2026-04-28 01:38 44.42665 51.66185 35118 ft 475 kts 22°
2026-04-28 01:39 44.48706 51.69933 35117 ft 475 kts 22°
2026-04-28 01:39 44.54744 51.73694 35116 ft 475 kts 22°
2026-04-28 01:40 44.60781 51.77467 35119 ft 475 kts 22°
2026-04-28 01:40 44.66816 51.81253 35115 ft 475 kts 22°
2026-04-28 01:41 44.72854 51.85053 35122 ft 476 kts 22°
2026-04-28 01:41 44.78896 51.88855 35121 ft 476 kts 22°
2026-04-28 01:42 44.84746 51.93227 35120 ft 477 kts 30°
2026-04-28 01:42 44.90418 51.98099 35122 ft 478 kts 30°
2026-04-28 01:43 44.96096 52.02980 35121 ft 478 kts 30°
2026-04-28 01:43 45.01775 52.07879 35132 ft 478 kts 30°
2026-04-28 01:44 45.07462 52.12774 35132 ft 479 kts 30°
2026-04-28 01:44 45.13149 52.17686 35130 ft 479 kts 31°
2026-04-28 01:45 45.18828 52.22623 35130 ft 479 kts 31°
2026-04-28 01:45 45.24503 52.27581 35131 ft 479 kts 31°
2026-04-28 01:46 45.30184 52.32543 35127 ft 479 kts 31°
2026-04-28 01:46 45.35861 52.37506 35126 ft 479 kts 31°
2026-04-28 01:47 45.41542 52.42478 35125 ft 479 kts 31°
2026-04-28 01:47 45.47224 52.47468 35120 ft 480 kts 31°
2026-04-28 01:48 45.52898 52.52475 35119 ft 480 kts 31°
2026-04-28 01:48 45.58536 52.57462 35120 ft 480 kts 31°
2026-04-28 01:49 45.64222 52.62496 35116 ft 481 kts 31°
2026-04-28 01:49 45.69912 52.67534 35116 ft 481 kts 31°
2026-04-28 01:50 45.75600 52.72595 35115 ft 482 kts 31°
2026-04-28 01:50 45.81290 52.77685 35116 ft 482 kts 31°
2026-04-28 01:51 45.86992 52.82778 35116 ft 483 kts 31°
2026-04-28 01:51 45.92693 52.87883 35117 ft 483 kts 31°
2026-04-28 01:52 45.98395 52.93012 35115 ft 484 kts 32°
2026-04-28 01:52 46.04101 52.98156 35116 ft 484 kts 31°
2026-04-28 01:53 46.09814 53.03305 35115 ft 485 kts 31°
2026-04-28 01:53 46.15531 53.08466 35113 ft 485 kts 31°
2026-04-28 01:54 46.21252 53.13652 35116 ft 486 kts 32°
2026-04-28 01:54 46.26968 53.18855 35113 ft 486 kts 32°
2026-04-28 01:55 46.32689 53.24077 35114 ft 486 kts 32°
2026-04-28 01:55 46.38419 53.29308 35111 ft 487 kts 32°
2026-04-28 01:56 46.44150 53.34557 35110 ft 488 kts 32°
2026-04-28 01:56 46.49845 53.39792 35110 ft 488 kts 32°
2026-04-28 01:57 46.55579 53.45084 35112 ft 489 kts 32°
2026-04-28 01:57 46.61319 53.50384 35109 ft 489 kts 32°
2026-04-28 01:58 46.67063 53.55698 35114 ft 489 kts 32°
2026-04-28 01:58 46.72812 53.61021 35111 ft 490 kts 32°
2026-04-28 01:59 46.78561 53.66366 35111 ft 490 kts 32°
2026-04-28 01:59 46.84307 53.71744 35111 ft 491 kts 32°
2026-04-28 02:00 46.90063 53.77125 35111 ft 491 kts 32°
2026-04-28 02:00 46.95825 53.82519 35113 ft 492 kts 32°
2026-04-28 02:01 47.01587 53.87935 35116 ft 492 kts 32°
2026-04-28 02:01 47.07350 53.93368 35116 ft 493 kts 32°
2026-04-28 02:02 47.13117 53.98813 35117 ft 493 kts 32°
2026-04-28 02:02 47.18889 54.04270 35114 ft 493 kts 32°
2026-04-28 02:03 47.24659 54.09747 35117 ft 494 kts 32°
2026-04-28 02:03 47.30432 54.15237 35117 ft 494 kts 32°
2026-04-28 02:04 47.36203 54.20758 35115 ft 495 kts 32°
2026-04-28 02:04 47.41980 54.26288 35119 ft 495 kts 32°
2026-04-28 02:05 47.47756 54.31836 35114 ft 495 kts 32°
2026-04-28 02:05 47.53535 54.37402 35115 ft 496 kts 32°
2026-04-28 02:06 47.59322 54.42982 35123 ft 497 kts 32°
2026-04-28 02:06 47.65112 54.48570 35125 ft 497 kts 32°
2026-04-28 02:07 47.70895 54.54183 35122 ft 497 kts 32°
2026-04-28 02:07 47.76674 54.59822 35120 ft 497 kts 32°
2026-04-28 02:08 47.82418 54.65445 35120 ft 497 kts 32°
2026-04-28 02:08 47.88200 54.71104 35128 ft 498 kts 32°
2026-04-28 02:09 47.93990 54.76770 35132 ft 498 kts 32°
2026-04-28 02:09 47.99774 54.82458 35135 ft 498 kts 32°
2026-04-28 02:10 48.05553 54.88163 35133 ft 498 kts 32°
2026-04-28 02:10 48.11338 54.93878 35131 ft 498 kts 32°
2026-04-28 02:11 48.17112 54.99601 35126 ft 498 kts 32°
2026-04-28 02:11 48.22887 55.05345 35123 ft 498 kts 32°
2026-04-28 02:12 48.28661 55.11103 35123 ft 498 kts 32°
2026-04-28 02:12 48.34433 55.16880 35121 ft 499 kts 32°
2026-04-28 02:13 48.40207 55.22667 35123 ft 499 kts 32°
2026-04-28 02:13 48.45982 55.28471 35123 ft 499 kts 32°
2026-04-28 02:14 48.51761 55.34290 35126 ft 499 kts 32°
2026-04-28 02:14 48.57533 55.40127 35125 ft 499 kts 32°
2026-04-28 02:15 48.66187 55.48918 35122 ft 500 kts 32°
2026-04-28 02:16 48.71960 55.54772 35121 ft 500 kts 32°
2026-04-28 02:16 48.77731 55.60658 35121 ft 500 kts 32°
2026-04-28 02:17 48.83496 55.66558 35120 ft 500 kts 32°
2026-04-28 02:17 48.88289 55.71465 35116 ft 500 kts 32°
2026-04-28 02:18 48.95017 55.78420 35119 ft 500 kts 32°
2026-04-28 02:18 48.99801 55.83373 35116 ft 501 kts 32°
2026-04-28 02:19 49.05569 55.89331 35113 ft 501 kts 32°
2026-04-28 02:19 49.11327 55.95299 35114 ft 501 kts 32°
2026-04-28 02:20 49.17085 56.01302 35112 ft 501 kts 32°
2026-04-28 02:20 49.22836 56.07312 35109 ft 501 kts 32°
2026-04-28 02:21 49.28582 56.13332 35107 ft 500 kts 32°
2026-04-28 02:21 49.34328 56.19355 35107 ft 500 kts 32°
2026-04-28 02:22 49.40066 56.25400 35113 ft 500 kts 32°
2026-04-28 02:22 49.45800 56.31459 35104 ft 500 kts 32°
2026-04-28 02:23 49.51526 56.37542 35110 ft 500 kts 33°
2026-04-28 02:23 49.57250 56.43633 35112 ft 500 kts 32°
2026-04-28 02:24 49.62973 56.49724 35107 ft 500 kts 33°
2026-04-28 02:24 49.68687 56.55834 35110 ft 500 kts 33°
2026-04-28 02:25 49.74629 56.61295 35103 ft 496 kts 23°
2026-04-28 02:25 49.80823 56.65985 35110 ft 496 kts 23°
2026-04-28 02:26 49.87002 56.70713 35109 ft 495 kts 23°
2026-04-28 02:26 49.93175 56.75457 35108 ft 495 kts 23°
2026-04-28 02:27 49.99346 56.80209 35111 ft 495 kts 23°
2026-04-28 02:27 50.05514 56.84966 35115 ft 495 kts 23°
2026-04-28 02:28 50.11635 56.89703 35107 ft 494 kts 23°
2026-04-28 02:28 50.17830 56.94489 35109 ft 494 kts 23°
2026-04-28 02:29 50.23932 56.99225 35101 ft 493 kts 24°
2026-04-28 02:29 50.30064 57.04016 35101 ft 492 kts 24°
2026-04-28 02:30 50.36188 57.08809 35097 ft 492 kts 24°
2026-04-28 02:30 50.42305 57.13609 35089 ft 491 kts 24°
2026-04-28 02:31 50.48414 57.18410 35090 ft 491 kts 24°
2026-04-28 02:31 50.54516 57.23223 35085 ft 491 kts 24°
2026-04-28 02:32 50.60615 57.28048 35090 ft 490 kts 24°
2026-04-28 02:32 50.66708 57.32884 35085 ft 490 kts 24°
2026-04-28 02:33 50.72795 57.37734 35088 ft 490 kts 25°
2026-04-28 02:33 50.78878 57.42594 35087 ft 490 kts 25°
2026-04-28 02:34 50.84960 57.47460 35084 ft 490 kts 25°
2026-04-28 02:34 50.91281 57.51280 35081 ft 485 kts 13°
2026-04-28 02:35 50.97757 57.54291 35078 ft 485 kts 13°
2026-04-28 02:35 51.04232 57.57331 35074 ft 485 kts 13°
2026-04-28 02:36 51.10699 57.60379 35072 ft 485 kts 13°
2026-04-28 02:36 51.17168 57.63434 35065 ft 485 kts 13°
2026-04-28 02:37 51.23644 57.66517 35066 ft 486 kts 13°
2026-04-28 02:37 51.30121 57.69607 35063 ft 486 kts 13°
2026-04-28 02:38 51.36603 57.72684 35056 ft 486 kts 13°
2026-04-28 02:38 51.43043 57.75758 35061 ft 487 kts 14°
2026-04-28 02:39 51.49577 57.78893 35056 ft 487 kts 14°
2026-04-28 02:39 51.56025 57.82001 35056 ft 487 kts 14°
2026-04-28 02:40 51.62523 57.85142 35050 ft 488 kts 14°
2026-04-28 02:40 51.69025 57.88298 35049 ft 488 kts 14°
2026-04-28 02:41 51.75532 57.91466 35047 ft 489 kts 14°
2026-04-28 02:41 51.82046 57.94636 35044 ft 489 kts 14°
2026-04-28 02:42 51.88561 57.97812 35041 ft 489 kts 14°
2026-04-28 02:42 51.95078 58.01002 35034 ft 489 kts 14°
2026-04-28 02:43 52.01596 58.04209 35031 ft 490 kts 14°
2026-04-28 02:43 52.08113 58.07427 35032 ft 490 kts 14°
2026-04-28 02:44 52.14641 58.10656 35026 ft 490 kts 14°
2026-04-28 02:44 52.21165 58.13892 35017 ft 490 kts 14°
2026-04-28 02:45 52.27687 58.17136 35014 ft 490 kts 14°
2026-04-28 02:45 52.34210 58.20391 35009 ft 491 kts 14°
2026-04-28 02:46 52.40745 58.23657 35003 ft 491 kts 14°
2026-04-28 02:46 52.47285 58.26942 35000 ft 492 kts 14°
2026-04-28 02:47 52.53831 58.30239 35002 ft 492 kts 14°
2026-04-28 02:47 52.60386 58.33555 34998 ft 493 kts 14°
2026-04-28 02:48 52.66939 58.36933 34991 ft 494 kts 15°
2026-04-28 02:48 52.73493 58.40354 34989 ft 494 kts 15°
2026-04-28 02:49 52.80051 58.43789 34987 ft 495 kts 15°
2026-04-28 02:49 52.86615 58.47224 34984 ft 495 kts 15°
2026-04-28 02:50 52.93177 58.50670 34980 ft 495 kts 15°
2026-04-28 02:50 52.99745 58.54122 34977 ft 495 kts 15°
2026-04-28 02:51 53.06323 58.57594 34975 ft 496 kts 15°
2026-04-28 02:51 53.12905 58.61074 34973 ft 497 kts 15°
2026-04-28 02:52 53.19495 58.64574 34981 ft 497 kts 15°
2026-04-28 02:52 53.26094 58.68082 34988 ft 498 kts 15°
2026-04-28 02:53 53.32649 58.71581 34995 ft 498 kts 15°
2026-04-28 02:53 53.39297 58.75154 34998 ft 499 kts 15°
2026-04-28 02:54 53.45923 58.78595 34998 ft 499 kts 14°
2026-04-28 02:54 53.52548 58.81816 34990 ft 499 kts 13°
2026-04-28 02:55 53.59223 58.85038 34977 ft 500 kts 13°
2026-04-28 02:55 53.65900 58.88346 34973 ft 500 kts 14°
2026-04-28 02:56 53.72576 58.91710 34960 ft 501 kts 14°
2026-04-28 02:56 53.79258 58.95065 34955 ft 501 kts 14°
2026-04-28 02:57 53.85941 58.98401 34960 ft 501 kts 14°
2026-04-28 02:57 53.92638 59.01761 34958 ft 502 kts 14°
2026-04-28 02:58 53.99331 59.05154 34958 ft 502 kts 14°
2026-04-28 02:58 54.06031 59.08580 34958 ft 503 kts 14°
2026-04-28 02:59 54.12730 59.12070 34959 ft 504 kts 14°
2026-04-28 02:59 54.19430 59.15594 34961 ft 504 kts 14°
2026-04-28 03:00 54.26141 59.19114 34966 ft 505 kts 14°
2026-04-28 03:00 54.32856 59.22635 34969 ft 505 kts 14°
2026-04-28 03:01 54.39571 59.26183 34971 ft 505 kts 14°
2026-04-28 03:01 54.46291 59.29744 34970 ft 505 kts 14°
2026-04-28 03:02 54.53006 59.33316 34974 ft 505 kts 14°
2026-04-28 03:02 54.59728 59.36904 34978 ft 506 kts 14°
2026-04-28 03:03 54.60110 59.37108 34977 ft 506 kts 14°
2026-04-28 09:35 54.61901 59.38110 34790 ft 510 kts 18°
2026-04-28 09:36 54.68665 59.41859 34994 ft 513 kts 15°
2026-04-28 09:36 54.75530 59.45488 35003 ft 517 kts 13°
2026-04-28 09:37 54.78980 59.47268 34765 ft 517 kts 13°
2026-04-28 09:37 54.82435 59.49043 34520 ft 518 kts 13°
2026-04-28 09:37 54.85890 59.50825 33871 ft 519 kts 12°
2026-04-28 09:37 54.89349 59.52629 33191 ft 518 kts 13°
2026-04-28 09:38 54.92790 59.54443 32560 ft 516 kts 13°
2026-04-28 09:38 54.96222 59.56264 31913 ft 515 kts 13°
2026-04-28 09:38 54.99647 59.58089 31278 ft 515 kts 13°
2026-04-28 09:38 55.03071 59.59918 30644 ft 514 kts 13°
2026-04-28 09:39 55.06487 59.61748 30012 ft 514 kts 13°
2026-04-28 09:39 55.09903 59.63577 29337 ft 512 kts 13°
2026-04-28 09:39 55.13292 59.65390 28743 ft 508 kts 13°
2026-04-28 09:39 55.16666 59.67196 28141 ft 505 kts 13°
2026-04-28 09:40 55.20017 59.68995 27564 ft 502 kts 13°
2026-04-28 09:40 55.23351 59.70706 27087 ft 495 kts 11°
2026-04-28 09:40 55.26671 59.72166 26566 ft 489 kts
2026-04-28 09:40 55.29975 59.73416 26119 ft 483 kts
2026-04-28 09:41 55.33264 59.74548 25650 ft 479 kts
2026-04-28 09:41 55.36515 59.75646 25184 ft 474 kts
2026-04-28 09:41 55.39744 59.76771 24687 ft 472 kts
2026-04-28 09:41 55.42950 59.77973 24208 ft 470 kts
2026-04-28 09:42 55.46134 59.79243 23727 ft 468 kts
2026-04-28 09:42 55.49278 59.80527 23460 ft 459 kts
2026-04-28 09:42 55.52360 59.81799 23183 ft 450 kts
2026-04-28 09:42 55.55384 59.83056 22913 ft 442 kts
2026-04-28 09:43 55.58361 59.84295 22639 ft 438 kts
2026-04-28 09:43 55.61321 59.85529 22366 ft 435 kts
2026-04-28 09:43 55.64256 59.86753 22104 ft 433 kts
2026-04-28 09:43 55.67189 59.87975 21839 ft 432 kts
2026-04-28 09:44 55.70111 59.89189 21580 ft 430 kts
2026-04-28 09:44 55.73018 59.90399 21318 ft 428 kts
2026-04-28 09:44 55.75911 59.91606 21063 ft 427 kts
2026-04-28 09:44 55.78796 59.92808 20807 ft 425 kts
2026-04-28 09:45 55.81668 59.94008 20550 ft 423 kts
2026-04-28 09:45 55.84527 59.95206 20299 ft 421 kts
2026-04-28 09:45 55.87371 59.96404 20049 ft 419 kts
2026-04-28 09:45 55.90209 59.97602 19801 ft 418 kts 10°
2026-04-28 09:46 55.92963 59.99200 19492 ft 416 kts 21°
2026-04-28 09:46 55.95613 60.01286 19040 ft 416 kts 22°
2026-04-28 09:46 55.98259 60.03386 18603 ft 416 kts 23°
2026-04-28 09:46 56.00869 60.05459 18143 ft 416 kts 23°
2026-04-28 09:47 56.03515 60.07557 17672 ft 415 kts 23°
2026-04-28 09:47 56.06183 60.09674 17229 ft 413 kts 23°
2026-04-28 09:47 56.08800 60.11750 16810 ft 411 kts 23°
2026-04-28 09:47 56.11372 60.13795 16370 ft 409 kts 23°
2026-04-28 09:48 56.13972 60.15863 15937 ft 409 kts 23°
2026-04-28 09:48 56.16568 60.17930 15503 ft 408 kts 23°
2026-04-28 09:48 56.19159 60.19993 15075 ft 407 kts 23°
2026-04-28 09:48 56.21741 60.22053 14641 ft 406 kts 24°
2026-04-28 09:49 56.24313 60.24112 14206 ft 404 kts 24°
2026-04-28 09:49 56.26883 60.26175 13771 ft 403 kts 24°
2026-04-28 09:49 56.29434 60.28224 13358 ft 400 kts 24°
2026-04-28 09:49 56.31968 60.30267 12914 ft 397 kts 24°
2026-04-28 09:50 56.34480 60.32296 12472 ft 394 kts 24°
2026-04-28 09:50 56.36975 60.34314 12030 ft 392 kts 24°
2026-04-28 09:50 56.39450 60.36317 11570 ft 390 kts 24°
2026-04-28 09:50 56.41908 60.38307 11187 ft 386 kts 24°
2026-04-28 09:51 56.44321 60.40263 11031 ft 374 kts 24°
2026-04-28 09:51 56.46626 60.42283 10902 ft 363 kts 33°
2026-04-28 09:51 56.48524 60.45149 10652 ft 350 kts 54°
2026-04-28 09:51 56.49824 60.48760 10330 ft 337 kts 73°
2026-04-28 09:52 56.50480 60.52720 9968 ft 322 kts 91°
2026-04-28 09:52 56.50678 60.56696 9562 ft 316 kts 95°
2026-04-28 09:52 56.50854 60.60647 9171 ft 314 kts 94°
2026-04-28 09:52 56.51035 60.64567 8801 ft 311 kts 94°
2026-04-28 09:53 56.51216 60.68448 8445 ft 307 kts 94°
2026-04-28 09:53 56.51384 60.72220 8309 ft 294 kts 97°
2026-04-28 09:53 56.51089 60.75658 8174 ft 263 kts 122°
2026-04-28 09:53 56.50185 60.78303 8021 ft 235 kts 143°
2026-04-28 09:54 56.48941 60.80021 7712 ft 219 kts 161°
2026-04-28 09:54 56.47537 60.80983 7318 ft 215 kts 167°
2026-04-28 09:54 56.46122 60.81879 7016 ft 213 kts 166°
2026-04-28 09:54 56.44742 60.82774 6974 ft 212 kts 165°
2026-04-28 09:55 56.43353 60.83679 6926 ft 213 kts 165°
2026-04-28 09:55 56.42054 60.85035 6877 ft 221 kts 146°
2026-04-28 09:55 56.41007 60.87144 6814 ft 229 kts 134°
2026-04-28 09:55 56.40342 60.89818 6682 ft 245 kts 106°
2026-04-28 09:56 56.40551 60.93078 6561 ft 285 kts 71°
2026-04-28 09:56 56.41816 60.95936 6442 ft 301 kts 37°
2026-04-28 09:56 56.43641 60.97830 6299 ft 304 kts 25°
2026-04-28 09:56 56.45596 60.99269 6180 ft 303 kts 20°
2026-04-28 09:57 56.47577 61.00527 6051 ft 301 kts 19°
2026-04-28 09:57 56.49554 61.01767 5914 ft 300 kts 19°
2026-04-28 09:57 56.51511 61.03054 5787 ft 299 kts 21°
2026-04-28 09:57 56.52800 61.03941 5700 ft 299 kts 21°
2026-04-28 09:58 56.54730 61.05315 5566 ft 298 kts 22°
2026-04-28 09:58 56.57283 61.07192 5396 ft 295 kts 23°
2026-04-28 09:58 56.58543 61.08133 5309 ft 295 kts 23°
2026-04-28 09:58 56.60435 61.09550 5184 ft 294 kts 23°
2026-04-28 09:59 56.62326 61.10966 5051 ft 294 kts 22°
2026-04-28 09:59 56.64282 61.12009 4936 ft 293 kts
2026-04-28 09:59 56.66322 61.12253 4347 ft 298 kts 354°
2026-04-28 09:59 56.68348 61.11866 4121 ft 287 kts 352°
2026-04-28 10:00 56.70310 61.11489 3833 ft 280 kts 349°
2026-04-28 10:00 56.72037 61.10248 3649 ft 261 kts 315°
2026-04-28 10:00 56.73000 61.07600 3384 ft 248 kts 279°
2026-04-28 10:00 56.73172 61.04561 3197 ft 239 kts 269°
2026-04-28 10:01 56.73269 61.01449 2917 ft 247 kts 270°
2026-04-28 10:01 56.73393 60.98372 2589 ft 236 kts 270°
2026-04-28 10:01 56.73516 60.95495 2284 ft 221 kts 271°
2026-04-28 10:01 56.73629 60.92779 1981 ft 206 kts 271°
2026-04-28 10:02 56.73732 60.90279 1714 ft 190 kts 270°
2026-04-28 10:02 56.73756 60.89695 1662 ft 184 kts 271°
2026-04-28 10:03 56.73806 60.88109 1462 ft 167 kts 271°
2026-04-28 10:03 56.73905 60.86129 1258 ft 148 kts 272°
2026-04-28 10:03 56.73977 60.84327 1019 ft 138 kts 272°
2026-04-28 10:03 56.74048 60.82607 840 ft 135 kts 271°
2026-04-28 10:04 56.74114 60.80968 776 ft 117 kts 272°
2026-04-28 10:04 56.74156 60.79797 774 ft 68 kts 274°
2026-04-28 10:04 56.74176 60.79322 774 ft 24 kts 274°
2026-04-28 10:04 56.74198 60.79110 774 ft 15 kts 321°
2026-04-28 10:05 56.74309 60.79119 774 ft 18 kts 10°
2026-04-28 10:05 56.74435 60.79159 774 ft 18 kts 12°
2026-04-28 10:05 56.74555 60.79190 774 ft 17 kts 359°
2026-04-28 10:05 56.74665 60.79188 774 ft 15 kts
2026-04-28 10:06 56.74762 60.79188 774 ft 13 kts 360°
2026-04-28 10:06 56.74845 60.79206 774 ft 11 kts 42°
2026-04-28 10:06 56.74858 60.79353 774 ft 13 kts 91°
2026-04-28 10:06 56.74856 60.79504 774 ft 11 kts 90°
2026-04-28 10:07 56.74856 60.79637 774 ft 10 kts 92°
2026-04-28 10:07 56.74854 60.79752 774 ft 9 kts 90°
2026-04-28 10:07 56.74853 60.79860 774 ft 10 kts 90°
2026-04-28 10:07 56.74853 60.80008 775 ft 11 kts 89°
2026-04-28 10:08 56.74868 60.80126 775 ft 9 kts 40°
2026-04-28 10:08 56.74919 60.80136 775 ft 5 kts
2026-04-28 10:08 56.74932 60.80136 775 ft 1 kts 360°
2026-04-28 10:08 56.74939 60.80136 775 ft 1 kts 359°